Track QB50P1 (EO-79) now! 10-day predictions QB50P1 (EO-79) is classified as:
1 40025U 14033R 22144.82703289 .00003791 00000-0 39452-3 0 9990 2 40025 97.9590 82.0453 0013404 130.0877 230.1518 14.90399021430243